Location: Shenandoah County Park
(38.9356°N, 78.4524°W)
Time: 05:05:44
(UTC-04:00)

Transit 2A - Pass Details

Date: 14 June 2024
Orbit: 591 x 960 km, 66.7° (Epoch: 23 July)

Event Time Altitude Azimuth Distance (km) Brightness Sun altitude
Rises 02:53:41 0° 334° (NNW) 3,517 10.0 -23.6°
Reaches altitude 10° 02:56:11 10° 339° (NNW) 2,613 9.3 -23.4°
Maximum altitude 03:02:16 59° 58° (ENE) 1,091 6.9 -22.8°
Drops below altitude 10° 03:08:31 10° 137° (SE) 2,685 8.6 -22.3°
Enters shadow 03:10:30 - 141° (SE) 3,394 9.1 -22.1°
